FW0984 Weather Reports


Display with metric or nautical units.
time (UTC)temp
F
wind
direction
speed
MPH
gust
MPH
rain 1hr
in
rain 24hr
in
rain mn
in
humidity
%
barometer
mb
20260906213052 79 78 2.0 5.0 0.00 0.22 0.00 52 1016.1
20260906211550 79 147 2.0 11.0 0.00 0.22 0.00 53 1016.1
20260906210050 80 169 2.0 7.0 0.00 0.22 0.00 52 1016.1
20260906204548 80 136 2.0 8.0 0.00 0.22 0.00 51 1016.0
20260906203048 80 121 3.0 7.0 0.00 0.22 0.00 53 1016.0
20260906201547 80 37 2.0 7.0 0.00 0.22 0.00 50 1016.1
20260906200048 80 137 3.0 11.0 0.00 0.22 0.00 46 1016.1
20260906194544 80 182 4.0 9.0 0.00 0.51 0.00 46 1016.1
20260906193044 79 148 2.0 9.0 0.00 0.51 0.00 47 1016.2
20260906191554 79 119 3.0 10.0 0.00 0.51 0.00 46 1016.2
20260906190042 79 38 2.0 8.0 0.00 0.51 0.00 51 1016.3
20260906184542 80 184 1.0 10.0 0.00 0.51 0.00 49 1016.3
20260906183045 79 136 4.0 9.0 0.00 0.51 0.00 50 1016.5
20260906181538 80 161 3.0 10.0 0.00 0.51 0.00 52 1016.5
20260906180046 79 162 3.0 7.0 0.00 0.51 0.00 53 1016.4
20260906174538 79 181 3.0 10.0 0.00 0.51 0.00 60 1016.5
20260906173038 78 89 3.0 9.0 0.00 0.51 0.00 57 1016.7
20260906171531 79 173 2.0 8.0 0.00 0.51 0.00 65 1016.7
20260906170028 78 114 3.0 8.0 0.00 0.51 0.00 60 1016.9
20260906164526 77 134 2.0 12.0 0.00 0.51 0.00 60 1017.1
20260906163025 77 138 2.0 8.0 0.00 0.51 0.00 62 1017.2
20260906161519 77 153 1.0 8.0 0.00 0.51 0.00 60 1017.3
20260906160016 76 127 2.0 11.0 0.00 0.51 0.00 59 1017.4
20260906154512 76 99 3.0 9.0 0.00 0.51 0.00 63 1017.2
20260906153016 75 355 2.0 11.0 0.00 0.51 0.00 65 1017.3
20260906151504 74 14 2.0 8.0 0.00 0.51 0.00 71 1017.3
20260906150100 73 122 4.0 8.0 0.00 0.51 0.00 70 1017.1
20260906144556 72 126 3.0 6.0 0.00 0.51 0.00 71 1017.0
20260906143054 71 159 3.0 9.0 0.00 0.51 0.00 73 1017.1
20260906141548 70 140 3.0 9.0 0.00 0.51 0.00 75 1017.0
20260906140053 69 90 3.0 11.0 0.00 0.51 0.00 76 1016.8
20260906134542 68 155 3.0 7.0 0.00 0.51 0.00 80 1016.8
20260906133041 68 169 1.0 7.0 0.00 0.51 0.00 81 1016.8
20260906131538 67 150 2.0 7.0 0.00 0.51 0.00 82 1016.7
20260906130041 66 196 0.0 3.0 0.00 0.51 0.00 85 1016.6
20260906124533 66 130 1.0 4.0 0.00 0.51 0.00 88 1016.5
20260906123031 65 110 0.0 2.0 0.00 0.51 0.00 90 1016.3
20260906121527 65 136 0.0 2.0 0.00 0.51 0.00 92 1016.1
20260906120024 64 132 0.0 2.0 0.00 0.51 0.00 93 1015.8
20260906114521 64 132 0.0 2.0 0.00 0.51 0.00 94 1015.6
20260906113018 63 134 0.0 0.0 0.00 0.51 0.00 95 1015.5
20260906111516 63 134 0.0 2.0 0.00 0.51 0.00 95 1015.3
20260906110013 64 115 0.0 0.0 0.00 0.51 0.00 95 1015.1
20260906104511 64 115 0.0 1.0 0.00 0.51 0.00 95 1015.0
20260906103008 65 115 0.0 2.0 0.00 0.51 0.00 93 1014.9
20260906101505 66 138 0.0 2.0 0.00 0.51 0.00 92 1014.7
20260906100002 66 136 0.0 4.0 0.00 0.51 0.00 93 1014.7
20260906094611 66 128 0.0 2.0 0.00 0.51 0.00 93 1014.7
20260906093059 67 114 0.0 2.0 0.00 0.51 0.00 94 1014.4
20260906091555 67 90 1.0 4.0 0.00 0.51 0.00 94 1014.2
20260906090055 67 169 1.0 4.0 0.00 0.51 0.00 94 1014.2
20260906084554 68 168 0.0 3.0 0.00 0.51 0.00 95 1014.2
20260906083047 68 136 0.0 2.0 0.00 0.51 0.00 95 1014.1
20260906081546 69 114 0.0 2.0 0.00 0.51 0.00 95 1014.1
20260906080053 69 144 0.0 3.0 0.00 0.51 0.00 96 1013.9
20260906074543 69 150 0.0 3.0 0.00 0.51 0.00 96 1013.9
20260906073040 70 142 0.0 4.0 0.00 0.51 0.00 96 1013.9
20260906071540 70 138 0.0 3.0 0.00 0.51 0.00 97 1014.1
20260906070040 70 132 0.0 2.0 0.00 0.51 0.00 97 1014.1
20260906064539 70 136 0.0 2.0 0.00 0.51 0.00 97 1014.0
20260906063038 70 117 0.0 2.0 0.00 0.51 0.00 97 1014.0
20260906061539 70 129 0.0 2.0 0.00 0.51 0.00 97 1014.0
20260906060040 70 140 0.0 0.0 0.00 0.51 0.00 97 1014.1
20260906054536 70 140 0.0 0.0 0.00 0.51 0.00 97 1014.1
20260906053035 70 140 0.0 0.0 0.00 0.51 0.00 97 1014.1
20260906051534 70 140 0.0 0.0 0.00 0.51 0.00 97 1014.1
20260906050032 71 140 0.0 2.0 0.00 0.51 0.00 97 1013.9
20260906044533 70 127 0.0 1.0 0.00 0.51 0.00 97 1013.6
20260906043027 71 136 0.0 2.0 0.01 0.51 0.00 97 1013.4
20260906041535 70 111 0.0 0.0 0.01 0.51 0.00 97 1013.3
20260906040022 70 111 0.0 0.0 0.01 0.51 0.00 97 1013.2
20260906034526 71 111 0.0 0.0 0.00 0.50 0.50 96 1013.1
20260906033021 71 111 0.0 0.0 0.00 0.50 0.50 97 1013.1
20260906031520 71 111 0.0 0.0 0.00 0.50 0.50 96 1013.2
20260906030020 72 117 0.0 2.0 0.00 0.50 0.50 97 1013.1
20260906024519 71 132 0.0 2.0 0.00 0.50 0.50 97 1013.3
20260906023019 71 37 0.0 0.0 0.00 0.50 0.50 96 1013.2
20260906021519 71 37 0.0 2.0 0.13 0.50 0.50 96 1013.3
20260906020018 72 37 0.0 0.0 0.13 0.50 0.50 96 1013.4
20260906014522 71 281 0.0 0.0 0.13 0.50 0.50 96 1013.6
20260906013018 71 281 0.0 2.0 0.13 0.50 0.50 96 1013.4
20260906011516 71 140 0.0 2.0 0.00 0.37 0.37 96 1013.6
20260906010015 70 155 0.0 2.0 0.00 0.37 0.37 95 1012.5
20260906004515 70 160 0.0 2.0 0.02 0.37 0.37 95 1012.5
20260906003015 70 80 0.0 2.0 0.08 0.37 0.37 95 1012.1
20260906001514 70 97 0.0 1.0 0.08 0.37 0.37 94 1012.3
20260906000013 71 166 1.0 3.0 0.08 0.37 0.37 93 1012.4
20260905234513 72 248 1.0 4.0 0.05 0.34 0.34 90 1012.5
20260905233011 79 265 1.0 8.0 0.00 0.28 0.28 87 1012.4
20260905231510 79 110 0.0 0.0 0.00 0.28 0.28 88 1011.9
20260905230009 80 143 0.0 0.0 0.00 0.28 0.28 82 1011.4
20260905224517 80 135 0.0 0.0 0.00 0.28 0.28 87 1011.8
20260905223008 80 135 0.0 0.0 0.00 0.28 0.28 85 1011.7
20260905221519 81 135 0.0 0.0 0.00 0.28 0.28 84 1011.4
20260905220007 84 135 0.0 0.0 0.00 0.28 0.28 81 1011.3